Date String (YYYY-MM-DD hh:mm:ss) UTC,Instrument flags,Ambient pressure (hPa),Sample flow (lpm),Bypass flow (lpm),Sample temperature (°C),Ambient temperature (°C),ASC tube jacket temperature (°C),LED temperature (°C),Box temperature (°C),Sample RH (%),Span deviation,Mass concentration (μg/m³),Mass concentration (μg/m³),Mass concentration (μg/m³)
DateTimeUTC,F1_M11,P_M11,Q1_M11,Q2_M11,T1_M11,T2_M11,T3_M11,T4_M11,T5_M11,U1_M11,ZSPAN_M11,X0_M11,X2_M11,X1_M11
2023-04-22 21:00:00,,0832.7,5.00,0.00,22.5,21.1,00.0,30.8,24.1,15.1,-000.3,0010.04,0007.78,0007.39
2023-04-22 21:01:00,,0832.7,4.99,0.00,22.5,21.1,00.0,30.8,24.1,15.2,-000.6,0009.87,0007.72,0007.34
2023-04-22 21:02:00,,0832.7,5.00,0.00,22.5,21.2,00.0,30.8,24.1,15.3,-000.4,0009.80,0007.67,0007.30
2023-04-22 21:03:00,,0832.7,5.00,0.00,22.5,21.2,00.0,30.8,24.1,15.4,-000.3,0009.78,0007.65,0007.28
2023-04-22 21:04:00,,0832.7,5.00,0.00,22.5,21.2,00.0,30.8,24.1,15.2,-000.1,0009.70,0007.63,0007.26
2023-04-22 21:05:00,,0832.6,5.01,0.00,22.5,21.2,00.0,30.8,24.1,15.1,0000.1,0009.78,0007.67,0007.27
2023-04-22 21:06:00,,0832.6,5.00,0.00,22.5,21.2,00.0,30.8,24.1,14.8,0000.0,0009.80,0007.68,0007.27
2023-04-22 21:07:00,,0832.6,4.99,0.00,22.5,21.2,00.0,30.8,24.1,14.9,0000.0,0009.84,0007.69,0007.27
2023-04-22 21:08:00,,0832.7,5.00,0.00,22.5,21.2,00.0,30.8,24.1,14.6,0000.0,0009.85,0007.70,0007.26
2023-04-22 21:09:00,,0832.6,5.00,0.00,22.6,21.2,00.0,30.8,24.1,14.7,-000.0,0009.83,0007.72,0007.26
2023-04-22 21:10:00,,0832.6,4.99,0.00,22.6,21.2,00.0,30.8,24.1,14.7,-000.1,0009.86,0007.75,0007.27
2023-04-22 21:11:00,,0832.6,5.00,0.00,22.6,21.2,00.0,30.8,24.2,15.2,0000.2,0009.86,0007.76,0007.28
2023-04-22 21:12:00,,0832.6,5.01,0.00,22.6,21.2,00.0,30.9,24.2,15.7,0000.3,0010.02,0007.78,0007.29
2023-04-22 21:13:00,,0832.5,5.01,0.00,22.6,21.2,00.0,30.9,24.2,15.4,-000.0,0010.70,0007.82,0007.32
2023-04-22 21:14:00,,0832.5,5.00,0.00,22.6,21.2,00.0,30.9,24.1,15.1,-000.3,0010.73,0007.84,0007.34
2023-04-22 21:15:00,,0832.5,5.00,0.00,22.6,21.1,00.0,30.9,24.1,15.6,0000.0,0010.71,0007.84,0007.36
2023-04-22 21:16:00,,0832.5,5.00,0.00,22.6,21.1,00.0,30.9,24.1,15.7,-000.3,0010.61,0007.81,0007.37
2023-04-22 21:17:00,,0832.6,4.99,0.00,22.5,21.1,00.0,30.9,24.1,15.6,-000.1,0010.60,0007.82,0007.39
2023-04-22 21:18:00,,0832.6,4.99,0.00,22.5,21.0,00.0,30.9,24.0,15.1,0000.1,0010.58,0007.84,0007.42
2023-04-22 21:19:00,,0832.5,5.00,0.00,22.5,20.9,00.0,30.9,24.0,15.7,0000.6,0010.56,0007.84,0007.44
2023-04-22 21:20:00,,0832.5,5.00,0.00,22.4,20.8,00.0,30.8,24.0,15.2,0000.6,0010.63,0007.87,0007.47
2023-04-22 21:21:00,,0832.5,5.00,0.00,22.4,20.8,00.0,30.8,23.9,15.4,0000.5,0010.61,0007.90,0007.51
2023-04-22 21:22:00,,0832.5,5.00,0.00,22.4,20.8,00.0,30.8,23.9,15.8,0000.6,0010.90,0007.95,0007.55
2023-04-22 21:23:00,,0832.5,5.00,0.00,22.4,20.7,00.0,30.8,23.9,16.0,0000.7,0011.12,0008.00,0007.59
2023-04-22 21:24:00,,0832.5,5.00,0.00,22.3,20.6,00.0,30.8,23.8,16.1,0000.5,0010.56,0008.06,0007.64
2023-04-22 21:25:00,,0832.4,5.00,0.00,22.3,20.6,00.0,30.8,23.8,15.3,0001.0,0010.51,0008.08,0007.68
2023-04-22 21:26:00,,0832.4,5.00,0.00,22.3,20.6,00.0,30.8,23.8,15.4,0000.6,0010.57,0008.12,0007.71
2023-04-22 21:27:00,,0832.4,5.01,0.00,22.3,20.6,00.0,30.8,23.8,16.7,0000.2,0010.73,0008.18,0007.74
2023-04-22 21:28:00,,0832.4,5.00,0.00,22.3,20.6,00.0,30.8,23.8,15.9,0000.1,0010.83,0008.22,0007.75
2023-04-22 21:29:00,,0832.3,5.01,0.00,22.3,20.8,00.0,30.7,23.9,16.0,0000.2,0010.92,0008.29,0007.78
2023-04-22 21:30:00,,0832.4,5.00,0.00,22.4,21.5,00.0,30.7,24.2,15.8,0000.2,0011.03,0008.35,0007.81
2023-04-22 21:31:00,,0832.4,4.98,0.00,22.5,22.5,00.0,30.7,24.5,16.1,-000.1,0010.97,0008.34,0007.83
2023-04-22 21:32:00,,0832.4,5.00,0.00,22.6,22.6,00.0,30.7,24.5,16.0,0000.1,0011.02,0008.34,0007.83
2023-04-22 21:33:00,,0832.3,5.00,0.00,22.6,22.4,00.0,30.8,24.4,16.4,0000.3,0010.79,0008.36,0007.84
2023-04-22 21:34:00,,0832.3,5.00,0.00,22.6,22.3,00.0,30.8,24.3,16.2,0000.2,0010.60,0008.36,0007.84
2023-04-22 21:35:00,,0832.3,5.00,0.00,22.6,22.0,00.0,30.9,24.3,15.4,0000.9,0010.61,0008.35,0007.83
2023-04-22 21:36:00,,0832.3,5.01,0.00,22.6,21.8,00.0,30.9,24.3,16.1,0000.5,0010.63,0008.35,0007.81
2023-04-22 21:37:00,,0832.3,5.00,0.00,22.6,21.7,00.0,30.9,24.2,16.6,0001.0,0010.65,0008.36,0007.81
2023-04-22 21:38:00,,0832.2,5.00,0.00,22.6,21.6,00.0,30.9,24.2,16.3,0001.5,0010.58,0008.35,0007.82
2023-04-22 21:39:00,,0832.2,5.01,0.00,22.6,21.5,00.0,30.9,24.2,16.0,0001.5,0010.51,0008.34,0007.82
2023-04-22 21:40:00,,0832.2,5.00,0.00,22.6,21.4,00.0,31.0,24.2,15.4,0001.5,0010.46,0008.32,0007.82
2023-04-22 21:41:00,,0832.2,5.00,0.00,22.6,21.3,00.0,31.0,24.2,15.9,0001.4,0010.35,0008.28,0007.81
2023-04-22 21:42:00,,0832.2,4.99,0.00,22.6,21.3,00.0,31.0,24.2,15.6,0001.2,0010.34,0008.26,0007.80
2023-04-22 21:43:00,,0832.2,5.00,0.00,22.6,21.2,00.0,31.0,24.1,15.3,0001.0,0010.28,0008.26,0007.82
2023-04-22 21:44:00,,0832.2,5.00,0.00,22.6,21.1,00.0,31.0,24.1,15.4,0000.5,0010.27,0008.25,0007.82
2023-04-22 21:45:00,,0832.2,5.00,0.00,22.6,21.1,00.0,31.0,24.1,15.5,0000.2,0010.24,0008.24,0007.84
2023-04-22 21:46:00,,0832.2,5.00,0.00,22.5,21.1,00.0,31.0,24.1,15.3,0000.3,0010.21,0008.25,0007.86
2023-04-22 21:47:00,,0832.2,5.01,0.00,22.5,21.1,00.0,31.0,24.1,15.6,0001.1,0010.26,0008.27,0007.87
2023-04-22 21:48:00,,0832.2,5.00,0.00,22.5,21.1,00.0,31.0,24.1,16.2,0001.1,0010.22,0008.26,0007.88
2023-04-22 21:49:00,,0832.2,5.00,0.00,22.5,21.1,00.0,31.0,24.1,15.6,0000.4,0010.22,0008.26,0007.88
2023-04-22 21:50:00,,0832.2,5.00,0.00,22.5,21.1,00.0,30.9,24.1,15.6,0000.0,0010.30,0008.30,0007.90
2023-04-22 21:51:00,,0832.2,4.99,0.00,22.5,21.1,00.0,30.9,24.1,15.4,-000.1,0010.41,0008.35,0007.91
2023-04-22 21:52:00,,0832.2,5.00,0.00,22.5,21.1,00.0,30.9,24.1,15.3,-000.1,0010.52,0008.41,0007.93
2023-04-22 21:53:00,,0832.2,5.01,0.00,22.5,21.1,00.0,30.9,24.1,15.6,0000.8,0010.53,0008.42,0007.94
2023-04-22 21:54:00,,0832.2,5.01,0.00,22.5,21.1,00.0,30.9,24.1,15.4,0001.4,0010.61,0008.44,0007.93
2023-04-22 21:55:00,,0832.2,4.99,0.00,22.5,21.1,00.0,30.9,24.1,15.5,0002.0,0010.57,0008.44,0007.94
2023-04-22 21:56:00,,0832.3,4.99,0.00,22.6,21.2,00.0,30.9,24.1,15.2,0001.9,0010.51,0008.42,0007.93
2023-04-22 21:57:00,,0832.2,5.00,0.00,22.6,21.2,00.0,30.9,24.1,15.3,0001.6,0010.50,0008.41,0007.91
2023-04-22 21:58:00,,0832.2,5.01,0.00,22.6,21.2,00.0,30.9,24.2,15.5,0000.6,0010.40,0008.38,0007.91
2023-04-22 21:59:00,,0832.2,5.01,0.00,22.6,21.2,00.0,30.9,24.2,15.9,0000.8,0010.39,0008.37,0007.90
